Location: ??????????
(48.4699°N, 37.9573°E)
Time: 19:55:49
(UTC+00:00)

CREW DRAGON DEMO-1 DEB - Pass Details

Date: 20 January 2021
Orbit: 334 x 338 km, 51.6° (Epoch: 01 March)

Event Time Altitude Azimuth Distance (km) Brightness Sun altitude
Rises 15:58:02 0° 290° (WNW) 2,173 7.7 -17.8°
Reaches altitude 10° 16:00:05 10° 293° (WNW) 1,322 6.4 -18.2°
Enters shadow 16:02:49 68° 340° (NNW) 380 2.8 -18.6°
